Location: Haliburton Scout Reserve
(45.0900°N, 78.3200°W)
Time: 23:11:49
(UTC-04:00)

Courier 1B - Pass Details

Date: 16 February 2023
Orbit: 962 x 1209 km, 28.3° (Epoch: 28 March)

Event Time Altitude Azimuth Distance (km) Brightness Sun altitude
Rises 05:57:33 0° 202° (SSW) 4,099 10.6 -13.9°
Reaches altitude 10° 06:03:47 10° 166° (SSE) 3,127 10.4 -12.8°
Maximum altitude 06:05:03 10° 156° (SSE) 3,090 10.5 -12.6°
Drops below altitude 10° 06:06:18 10° 147° (SSE) 3,117 10.7 -12.4°
Sets 06:12:26 0° 110° (ESE) 4,037 12.5 -11.3°
